When you browse on this site, cookies collect data to enhance your experience and personalize the content and advertising you see.
Visit our Privacy Policy to learn more. By continuing to use the site, you agree to this use of cookies and data.
  • In United Kingdom
  • List of Countries
  • For 7 days
  • Water Temperature
  • Weather Map
  • Weather Widgets
  • user-avatar
    Login

    Hourly Weather Szigethalom

    Today, 16 September, Monday

    Time Temperature Precipitation Wind Pressure Humidity
    00:00 +18°C° 0 mm 1 mps 756 mmHg 61%
    01:00 +18°C° 0 mm 1 mps 756 mmHg 66%
    02:00 +18°C° 0 mm 1 mps 756 mmHg 68%
    03:00 +18°C° 0 mm 1 mps 756 mmHg 69%
    04:00 +16°C° 0 mm 1 mps 755 mmHg 71%
    05:00 +18°C° 0 mm 1 mps 755 mmHg 70%
    06:00 +18°C° 0 mm 2 mps 755 mmHg 70%
    07:00 +19°C° 0 mm 2 mps 755 mmHg 69%
    08:00 +21°C° 0 mm 2 mps 755 mmHg 63%
    09:00 +24°C° 0 mm 2 mps 755 mmHg 58%
    10:00 +26°C° 0 mm 2 mps 755 mmHg 52%
    11:00 +27°C° 0 mm 3 mps 754 mmHg 48%
    12:00 +29°C° 0 mm 3 mps 754 mmHg 45%
    13:00 +30°C° 0 mm 4 mps 753 mmHg 41%
    14:00 +29°C° 0 mm 4 mps 753 mmHg 41%
    15:00 +29°C° 0 mm 4 mps 752 mmHg 41%
    16:00 +29°C° 0 mm 4 mps 752 mmHg 40%
    17:00 +27°C° 0 mm 3 mps 752 mmHg 42%
    18:00 +26°C° 0 mm 3 mps 752 mmHg 44%
    19:00 +24°C° 0 mm 2 mps 752 mmHg 46%
    20:00 +23°C° 0.1 mm 2 mps 752 mmHg 48%
    21:00 +23°C° 0.1 mm 2 mps 752 mmHg 49%
    22:00 +22°C° 0.1 mm 1 mps 752 mmHg 51%
    23:00 +21°C° 0 mm 2 mps 752 mmHg 52%

    Tomorrow, 17 September, Tuesday

    Time Temperature Precipitation Wind Pressure Humidity
    00:00 +20°C° 0 mm 2 mps 752 mmHg 52%
    01:00 +20°C° 0 mm 2 mps 752 mmHg 53%
    02:00 +20°C° 0 mm 2 mps 752 mmHg 54%
    03:00 +20°C° 0 mm 2 mps 752 mmHg 55%
    04:00 +20°C° 0 mm 2 mps 751 mmHg 56%
    05:00 +20°C° 0 mm 2 mps 751 mmHg 59%
    06:00 +20°C° 0 mm 3 mps 752 mmHg 62%
    07:00 +20°C° 0 mm 3 mps 752 mmHg 65%
    08:00 +21°C° 0 mm 3 mps 752 mmHg 62%
    09:00 +22°C° 0 mm 4 mps 752 mmHg 60%
    10:00 +23°C° 0 mm 4 mps 752 mmHg 58%
    11:00 +23°C° 0 mm 4 mps 752 mmHg 58%
    12:00 +22°C° 0 mm 4 mps 752 mmHg 59%
    13:00 +22°C° 0 mm 4 mps 751 mmHg 59%
    14:00 +23°C° 0 mm 4 mps 751 mmHg 57%
    15:00 +23°C° 0 mm 5 mps 751 mmHg 54%
    16:00 +23°C° 0 mm 5 mps 750 mmHg 52%
    17:00 +22°C° 0 mm 5 mps 750 mmHg 58%
    18:00 +20°C° 0 mm 4 mps 750 mmHg 64%
    19:00 +19°C° 0 mm 3 mps 750 mmHg 71%
    20:00 +18°C° 0 mm 4 mps 751 mmHg 72%
    21:00 +18°C° 0 mm 4 mps 751 mmHg 74%
    22:00 +18°C° 0 mm 4 mps 751 mmHg 75%
    23:00 +17°C° 0 mm 4 mps 752 mmHg 68%

    Day after tomorrow, 18 September, Wednesday

    Time Temperature Precipitation Wind Pressure Humidity
    00:00 +15°C° 0 mm 5 mps 752 mmHg 61%
    01:00 +14°C° 0 mm 5 mps 753 mmHg 54%
    02:00 +13°C° 0 mm 6 mps 753 mmHg 54%
    03:00 +11°C° 0 mm 6 mps 754 mmHg 54%
    04:00 +10°C° 0 mm 6 mps 755 mmHg 54%
    05:00 +10°C° 0 mm 6 mps 755 mmHg 53%
    06:00 +10°C° 0 mm 7 mps 756 mmHg 52%
    07:00 +10°C° 0 mm 7 mps 757 mmHg 51%
    08:00 +11°C° 0 mm 7 mps 757 mmHg 47%
    09:00 +13°C° 0 mm 6 mps 758 mmHg 43%
    10:00 +15°C° 0 mm 5 mps 758 mmHg 39%
    11:00 +16°C° 0 mm 5 mps 758 mmHg 36%
    12:00 +17°C° 0 mm 5 mps 758 mmHg 34%
    13:00 +19°C° 0 mm 5 mps 757 mmHg 31%
    14:00 +19°C° 0 mm 4 mps 757 mmHg 31%
    15:00 +19°C° 0 mm 4 mps 757 mmHg 31%
    16:00 +19°C° 0 mm 4 mps 757 mmHg 31%
    17:00 +17°C° 0 mm 3 mps 757 mmHg 34%
    18:00 +14°C° 0 mm 3 mps 757 mmHg 38%
    19:00 +14°C° 0 mm 2 mps 757 mmHg 42%
    20:00 +13°C° 0 mm 2 mps 758 mmHg 43%
    21:00 +13°C° 0 mm 2 mps 758 mmHg 45%
    22:00 +12°C° 0 mm 2 mps 758 mmHg 46%
    23:00 +12°C° 0 mm 2 mps 758 mmHg 48%

    19 September, Thursday

    Time Temperature Precipitation Wind Pressure Humidity
    00:00 +10°C° 0 mm 2 mps 758 mmHg 50%
    01:00 +10°C° 0 mm 2 mps 758 mmHg 52%
    02:00 +10°C° 0 mm 2 mps 758 mmHg 54%
    03:00 +9°C° 0 mm 2 mps 758 mmHg 57%
    04:00 +9°C° 0 mm 2 mps 758 mmHg 60%
    05:00 +10°C° 0 mm 3 mps 758 mmHg 59%
    06:00 +10°C° 0 mm 3 mps 758 mmHg 58%
    07:00 +11°C° 0 mm 4 mps 759 mmHg 58%
    08:00 +12°C° 0 mm 4 mps 759 mmHg 52%
    09:00 +13°C° 0 mm 5 mps 759 mmHg 46%
    10:00 +15°C° 0 mm 5 mps 760 mmHg 40%
    11:00 +15°C° 0 mm 5 mps 759 mmHg 38%
    12:00 +16°C° 0 mm 5 mps 759 mmHg 35%
    13:00 +17°C° 0 mm 5 mps 759 mmHg 33%
    14:00 +17°C° 0 mm 5 mps 759 mmHg 33%
    15:00 +17°C° 0 mm 5 mps 759 mmHg 33%
    16:00 +18°C° 0 mm 4 mps 758 mmHg 33%
    17:00 +15°C° 0 mm 4 mps 759 mmHg 38%
    18:00 +14°C° 0 mm 4 mps 759 mmHg 43%
    19:00 +12°C° 0 mm 4 mps 760 mmHg 48%
    20:00 +12°C° 0 mm 4 mps 760 mmHg 51%
    21:00 +11°C° 0 mm 4 mps 760 mmHg 54%
    22:00 +11°C° 0 mm 4 mps 761 mmHg 57%
    23:00 +10°C° 0 mm 3 mps 761 mmHg 59%

    20 September, Friday

    Time Temperature Precipitation Wind Pressure Humidity
    00:00 +10°C° 0 mm 3 mps 761 mmHg 61%
    01:00 +9°C° 0 mm 3 mps 761 mmHg 63%
    02:00 +9°C° 0 mm 3 mps 761 mmHg 65%
    03:00 +8°C° 0 mm 2 mps 761 mmHg 66%
    04:00 +8°C° 0 mm 2 mps 761 mmHg 68%
    05:00 +9°C° 0 mm 2 mps 761 mmHg 66%
    06:00 +9°C° 0 mm 2 mps 761 mmHg 64%
    07:00 +10°C° 0 mm 2 mps 762 mmHg 62%
    08:00 +13°C° 0 mm 2 mps 762 mmHg 54%
    09:00 +14°C° 0 mm 2 mps 762 mmHg 47%
    10:00 +16°C° 0 mm 2 mps 763 mmHg 39%
    11:00 +17°C° 0 mm 2 mps 762 mmHg 34%
    12:00 +18°C° 0 mm 2 mps 762 mmHg 30%
    13:00 +19°C° 0 mm 2 mps 761 mmHg 25%
    14:00 +19°C° 0 mm 2 mps 761 mmHg 25%
    15:00 +19°C° 0 mm 2 mps 761 mmHg 24%
    16:00 +19°C° 0 mm 2 mps 761 mmHg 24%
    17:00 +17°C° 0 mm 2 mps 761 mmHg 28%
    18:00 +15°C° 0 mm 2 mps 761 mmHg 33%
    19:00 +14°C° 0 mm 2 mps 761 mmHg 37%
    20:00 +13°C° 0 mm 2 mps 761 mmHg 39%
    21:00 +12°C° 0 mm 1 mps 762 mmHg 41%
    22:00 +12°C° 0 mm 1 mps 762 mmHg 44%
    23:00 +11°C° 0 mm 1 mps 762 mmHg 46%

    21 September, Saturday

    Time Temperature Precipitation Wind Pressure Humidity
    00:00 +11°C° 0 mm 1 mps 762 mmHg 48%
    01:00 +10°C° 0 mm 1 mps 762 mmHg 50%
    02:00 +10°C° 0 mm 1 mps 762 mmHg 52%
    03:00 +9°C° 0 mm 1 mps 762 mmHg 54%
    04:00 +8°C° 0 mm 2 mps 761 mmHg 56%
    05:00 +9°C° 0 mm 1 mps 761 mmHg 54%
    06:00 +10°C° 0 mm 1 mps 761 mmHg 53%
    07:00 +11°C° 0 mm 1 mps 761 mmHg 51%
    08:00 +13°C° 0 mm 1 mps 762 mmHg 46%
    09:00 +15°C° 0 mm 1 mps 762 mmHg 40%
    10:00 +17°C° 0 mm 2 mps 762 mmHg 35%
    11:00 +18°C° 0 mm 2 mps 762 mmHg 32%
    12:00 +19°C° 0 mm 2 mps 761 mmHg 29%
    13:00 +20°C° 0 mm 2 mps 761 mmHg 26%
    14:00 +21°C° 0 mm 1 mps 760 mmHg 26%
    15:00 +21°C° 0 mm 1 mps 760 mmHg 26%
    16:00 +21°C° 0 mm 1 mps 760 mmHg 26%
    17:00 +17°C° 0 mm 0 mps 760 mmHg 29%
    18:00 +16°C° 0 mm 0 mps 760 mmHg 32%
    19:00 +14°C° 0 mm 0 mps 760 mmHg 36%
    20:00 +14°C° 0 mm 0 mps 760 mmHg 37%
    21:00 +14°C° 0 mm 1 mps 760 mmHg 38%
    22:00 +14°C° 0 mm 1 mps 760 mmHg 39%
    23:00 +13°C° 0 mm 1 mps 760 mmHg 40%
    Show more